Home > Weather > Santa Rosa > Past weeks

Flag for USA Past Weather in Santa Rosa, California, USA — Yesterday and Last 2 Weeks

Now
58 °F

Low clouds.


Feels Like: 57 °F
Forecast: 53 / 78 °F
Wind: 7 mph from North

Location: Santa Rosa Sonoma County Airport

Current Time: Aug 29, 2016 at 11:01:23 AM

Latest Report: Aug 29, 2016 at 9:53 AM


Visibility: 7 mi

Pressure: 30.09 "Hg

Humidity: 84%

Dew Point: 53 °F

Location of Santa RosaLocation

Past Weather in Santa Rosa — Graph

°F

Santa Rosa Temperature Yesterday

Maximum temperature yesterday: 77 °F (at 1:53 PM)
Minimum temperature yesterday: 54 °F (at 11:53 PM)
Average temperature yesterday: 63 °F

High & Low Weather Summary for the Past Weeks

 TemperatureHumidityPressure
High82 °F (Aug 14, 1:53 PM)100% (Aug 16, 6:53 AM)30.09 "Hg (Aug 16, 6:53 AM)
Low51 °F (Aug 15, 6:53 AM)35% (Aug 14, 2:53 PM)29.76 "Hg (Aug 17, 4:53 PM)
Average62 °F78%29.92 "Hg
* Reported Aug 14 9:53 AM — Aug 29 9:53 AM, Santa Rosa, Weather by CustomWeather, © 2016

Note: Actual official high and low records may vary slightly from our data, if they occured in-between our weather recording intervals... More about our weather records

Advertising

Santa Rosa Weather History for the Previous 24 Hours

Scroll right to see more
 ConditionsComfort  
Time TempWeatherWind HumidityBarometerVisibility
9:53 AM
Mon, Aug 29
58 °FLow clouds.7 mph84%30.09 "Hg7 mi
8:53 AM56 °FLow clouds.3 mph90%30.09 "Hg7 mi
7:53 AM56 °FLow clouds.No wind90%30.07 "Hg10 mi
6:53 AM56 °FLow clouds.No wind90%30.06 "Hg10 mi
5:53 AM55 °FLow clouds.No wind93%30.06 "Hg9 mi
4:53 AM55 °FLow clouds.No wind93%30.05 "Hg10 mi
3:53 AM55 °FLow clouds.3 mph93%30.05 "Hg10 mi
2:53 AM56 °FLow clouds.No wind90%30.05 "Hg10 mi
1:53 AM56 °FLow clouds.3 mph90%30.04 "Hg10 mi
12:53 AM56 °FLow clouds.No wind90%30.05 "Hg10 mi
11:53 PM
Sun, Aug 28
54 °FClear.No wind90%30.05 "Hg10 mi
10:53 PM55 °FClear.3 mph90%30.05 "Hg10 mi
9:53 PM56 °FClear.6 mph87%30.05 "Hg10 mi
8:53 PM59 °FClear.8 mph78%30.02 "Hg10 mi
7:53 PM63 °FSunny.8 mph70%30.01 "Hg10 mi
6:53 PM69 °FSunny.10 mph57%30.00 "Hg10 mi
5:53 PM73 °FSunny.12 mph50%30.00 "Hg10 mi
4:53 PM75 °FSunny.10 mph47%29.99 "Hg10 mi
3:53 PM76 °FSunny.9 mph45%30.00 "Hg10 mi
2:53 PM77 °FSunny.9 mph45%30.01 "Hg10 mi
1:53 PM77 °FSunny.9 mph44%30.02 "Hg10 mi
12:53 PM73 °FSunny.3 mph50%30.03 "Hg10 mi
11:53 AM68 °FSunny.No wind61%30.05 "Hg10 mi
11:00 AM64 °FScattered clouds.7 mph68%30.08 "Hg10 mi
Weather by CustomWeather, © 2016

See weather overviewHow to use our weather pages